Weather History for LEGR - October, 2013

Change the Weather History Date:

Friday, October 4, 2013

  Actual Average Record
Temperature  
Mean Temperature 71 °F -  
Max Temperature 82 °F 70 °F 87 °F (2011)
Min Temperature 60 °F 47 °F 42 °F (2008)
Cooling Degree Days 6    
Growing Degree Days 21 (Base 50)    
Moisture  
Dew Point 63 °F    
Average Humidity 80    
Maximum Humidity 100    
Minimum Humidity 39    
Precipitation  
Precipitation 0.39 in - - ()
Sea Level Pressure  
Sea Level Pressure 30.08 in    
Wind  
Wind Speed 4 mph ()    
Max Wind Speed 32 mph    
Max Gust Speed 37 mph    
Visibility 6.2 miles    
Events Rain , Hail , Thunderstorm    
Averages and records for this station are not official NWS values.
T = Trace of Precipitation, MM = Missing Value Source: Averaged Metar Reports

Daily Weather History Graph

Daily Weather History Graph

Search for Another Location

Airport or City:

Trip Planner

Search our weather history database for the weather conditions in past years. The results will help you decide how hot, cold, wet, or windy it might be!

Date:

Astronomy

Oct. 04, 2013 Rise Set
Actual Time 8:13 AM CEST 7:53 PM CEST
Civil Twilight 7:47 AM CEST 8:19 PM CEST
Nautical Twilight 7:17 AM CEST 8:49 PM CEST
Astronomical Twilight 6:46 AM CEST 9:20 PM CEST
Moon 7:33 AM CEST (10/4) 7:28 PM CEST (10/4)
Length of Visible Light 12h 32m
Length of Day
11h 40m
Waning Crescent, 0% of the Moon is Illuminated
Oct 4
Waning Crescent
Oct 5
New
Oct 12
First Quarter
Oct 19
Full
Oct 27
Last Quarter

Hourly Weather History & Observations

Time (CEST) Temp. Heat Index Dew Point Humidity Pressure Visibility Wind Dir Wind Speed Gust Speed Precip Events Conditions
2:00 AM 64 °F - 59 °F 80% 29.99 in 19 mi WSW 2.3 mph - -   Clear
6:30 AM 60.8 °F - 59.0 °F 94% 30.04 in 6.2 mi Variable 2.3 mph - N/A   Scattered Clouds
7:00 AM 60.8 °F - 59.0 °F 94% 30.04 in 6.2 mi Variable 2.3 mph - N/A   Scattered Clouds
7:30 AM 60.8 °F - 59.0 °F 94% 30.04 in 6.2 mi Calm Calm - N/A   Scattered Clouds
8:00 AM 60.8 °F - 59.0 °F 94% 30.04 in 6.2 mi Variable 2.3 mph - N/A   Scattered Clouds
8:30 AM 60.8 °F - 59.0 °F 94% 30.04 in 6.2 mi Variable 1.2 mph - N/A   Scattered Clouds
9:00 AM 62.6 °F - 60.8 °F 94% 30.04 in 6.2 mi Calm Calm - N/A   Scattered Clouds
9:30 AM 62.6 °F - 60.8 °F 94% 30.04 in 6.2 mi Variable 1.2 mph - N/A   Scattered Clouds
10:00 AM 64.4 °F - 62.6 °F 94% 30.06 in 6.2 mi Variable 2.3 mph - N/A   Scattered Clouds
10:30 AM 68.0 °F - 62.6 °F 83% 30.06 in 6.2 mi Variable 1.2 mph - N/A   Scattered Clouds
11:00 AM 68.0 °F - 62.6 °F 83% 30.09 in 6.2 mi Variable 1.2 mph - N/A   Scattered Clouds
11:30 AM 71.6 °F - 62.6 °F 73% 30.09 in 6.2 mi Variable 2.3 mph - N/A   Scattered Clouds
12:00 PM 73.4 °F - 62.6 °F 69% 30.09 in 6.2 mi Variable 1.2 mph - N/A   Scattered Clouds
12:30 PM 75.2 °F - 62.6 °F 65% 30.09 in 6.2 mi Variable 2.3 mph - N/A   Scattered Clouds
1:00 PM 77.0 °F - 60.8 °F 57% 30.09 in 6.2 mi WNW 5.8 mph - N/A   Scattered Clouds
1:30 PM 77.0 °F - 59.0 °F 54% 30.09 in 6.2 mi West 3.5 mph - N/A   Scattered Clouds
2:00 PM 80 °F - 59 °F 39% 29.99 in 12 mi West 4.6 mph - -   Scattered Clouds
2:00 PM 78.8 °F - 60.8 °F 54% 30.09 in 6.2 mi Variable 3.5 mph - N/A   Scattered Clouds
2:30 PM 80.6 °F 81.5 °F 60.8 °F 51% 30.09 in 6.2 mi West 4.6 mph - N/A   Partly Cloudy
3:00 PM 80.6 °F 81.5 °F 60.8 °F 51% 30.06 in 6.2 mi West 4.6 mph - N/A   Scattered Clouds
3:30 PM 78.8 °F - 62.6 °F 57% 30.06 in 6.2 mi WNW 5.8 mph - N/A   Scattered Clouds
3:39 PM 78.8 °F - 62.6 °F 57% 30.06 in 6.2 mi WNW 8.1 mph - N/A Thunderstorm Thunderstorm
3:49 PM 71.6 °F - 66.2 °F 83% 30.09 in 2.5 mi West 20.7 mph 36.8 mph N/A Rain , Thunderstorm Thunderstorms and Rain
3:51 PM 68.0 °F - 64.4 °F 88% 30.09 in 0.5 mi West 32.2 mph - N/A Rain , Hail , Thunderstorm Heavy Thunderstorms with Hail
3:57 PM 66.2 °F - 66.2 °F 100% 30.06 in 1.9 mi WNW 16.1 mph 28.8 mph N/A Rain , Thunderstorm Light Rain Showers
4:00 PM 66.2 °F - 66.2 °F 100% 30.09 in 1.2 mi WNW 16.1 mph 28.8 mph N/A Rain , Hail , Thunderstorm Thunderstorms with Hail
4:02 PM 68.0 °F - 68.0 °F 100% 30.09 in 2.5 mi WNW 15.0 mph - N/A Rain Light Rain
4:10 PM 69.8 °F - 69.8 °F 100% 30.09 in 2.5 mi West 9.2 mph - N/A Rain Light Rain
4:18 PM 69.8 °F - 69.8 °F 100% 30.09 in 5.6 mi West 10.4 mph - N/A   Scattered Clouds
4:30 PM 71.6 °F - 68.0 °F 88% 30.09 in 6.2 mi West 11.5 mph - N/A   Scattered Clouds
5:00 PM 73.4 °F - 68.0 °F 83% 30.09 in 6.2 mi West 12.7 mph - N/A   Partly Cloudy
5:30 PM 75.2 °F - 66.2 °F 73% 30.09 in 6.2 mi West 6.9 mph - N/A   Partly Cloudy
6:00 PM 75.2 °F - 66.2 °F 73% 30.09 in 6.2 mi West 10.4 mph - N/A   Partly Cloudy
6:30 PM 77.0 °F - 64.4 °F 65% 30.09 in 6.2 mi West 8.1 mph - N/A   Partly Cloudy
7:00 PM 75.2 °F - 64.4 °F 69% 30.09 in 6.2 mi West 9.2 mph - N/A   Partly Cloudy
7:30 PM 73.4 °F - 64.4 °F 73% 30.09 in 6.2 mi West 5.8 mph - N/A   Partly Cloudy
8:00 PM 71 °F - 62 °F 67% 30.04 in 16 mi SSW 4.6 mph - -   Partly Cloudy
8:00 PM 71.6 °F - 64.4 °F 78% 30.12 in 6.2 mi SW 3.5 mph - N/A   Partly Cloudy
8:30 PM 69.8 °F - 64.4 °F 83% 30.12 in 6.2 mi WSW 3.5 mph - N/A   Scattered Clouds
9:00 PM 68.0 °F - 64.4 °F 88% 30.12 in 6.2 mi WSW 4.6 mph - N/A   Scattered Clouds
9:30 PM 68.0 °F - 62.6 °F 83% 30.12 in 6.2 mi Variable 1.2 mph - N/A   Scattered Clouds
10:00 PM 68.0 °F - 62.6 °F 83% 30.15 in 6.2 mi Variable 1.2 mph - N/A   Partly Cloudy
10:30 PM 66.2 °F - 62.6 °F 88% 30.15 in 6.2 mi SW 3.5 mph - N/A   Partly Cloudy
11:00 PM 64.4 °F - 62.6 °F 94% 30.15 in 6.2 mi Variable 1.2 mph - N/A   Partly Cloudy
11:30 PM 64.4 °F - 62.6 °F 94% 30.15 in 6.2 mi Calm Calm - N/A   Partly Cloudy